Location: Newark
(41.6500°N, 71.4833°W)
Time: 23:37:29
(UTC+00:00)

Tiros 1 - Pass Details

Date: 29 January 2020
Orbit: 631 x 664 km, 48.4° (Epoch: 24 February)

Event Time Altitude Azimuth Distance (km) Brightness Sun altitude
Rises 22:39:32 0° 291° (WNW) 2,972 11.5 -8.3°
Reaches altitude 10° 22:42:13 10° 278° (W) 2,063 11.0 -8.7°
Maximum altitude 22:46:02 24° 224° (SW) 1,345 9.6 -9.4°
Drops below altitude 10° 22:49:52 10° 170° (S) 2,066 9.8 -10.1°
Sets 22:52:33 0° 157° (SSE) 2,977 10.5 -10.6°
